Location: Plainartige
(45.6866°N, 1.7993°E)
Time: 04:24:48
(UTC+00:00)

POLYITAN 1 - Pass Details

Date: 29 June 2022
Orbit: 586 x 605 km, 98.0° (Epoch: 13 August)

Event Time Altitude Azimuth Distance (km) Brightness Sun altitude
Rises 02:33:47 0° 3° (N) 2,856 ? -12.4°
Reaches altitude 10° 02:36:09 10° 352° (N) 1,952 ? -12.1°
Maximum altitude 02:39:48 29° 293° (WNW) 1,115 ? -11.7°
Enters shadow 02:42:38 15° 240° (WSW) 1,665 ? -11.4°
